Tracking 20232 objects as of 21-Jan-2020
HD Live streaming from Space Station
objects crossing your sky now

YZ-1 R/B

Track YZ-1 R/B now!


NORAD ID: 43248
Int'l Code: 2018-029D
Perigee: 22,144.0 km
Apogee: 22,693.0 km
Inclination: 55.5 °
Period: 810.2 minutes
Semi major axis: 28789 km
RCS: Unknown
Launch date: March 29, 2018
Source: People's Republic of China (PRC)
Launch site: Xichang Space Center, China (XSC)

Note: This is a ROCKET BODY
aabbcc
Your satellite tracking list
Your tracking list is empty




NASA's NSSDC Master Catalog

Two Line Element Set (TLE):
1 43248U 18029D   20019.45052007 -.00000070 +00000-0 +00000-0 0  9994
2 43248 055.5499 022.9311 0095349 357.0491 002.9213 01.77726671011741
Source of the keplerian elements: AFSPC